CAPE
0 1 57 200 0 0 0 0 0 0 0 0 0 25 39 144 4 17 847 1031 1036 1171 1448 1278 1258 951 607 303 121 37 0 0 72 334 410 416 261 80 9 2 1 1 0 0 0 0 0 4 31
2 5 117 95 0 0 0 0 0 0 0 0 243 362 224 256 595 1044 1231 1134 1083 1232 1454 1336 1146 815 445 270 116 18 15 6 5 81 118 88 21 3 2 1 0 0 0 0 0 0 5 22 66
167 32 46 15 0 0 0 0 0 0 0 0 131 472 410 448 1147 1146 1318 1179 1137 1101 1181 1131 943 636 442 235 176 74 8 10 8 5 4 3 5 3 3 3 3 1 2 1 1 12 17 50 3
184 2 38 12 0 0 0 0 0 0 0 0 359 477 638 667 921 1267 1323 1206 1110 1086 1065 988 822 597 419 226 319 130 84 0 2 3 3 4 6 4 4 4 3 2 3 4 3 38 8 4 0
169 5 15 8 0 0 0 0 0 0 0 0 299 383 667 868 940 1400 1294 1121 1003 1020 1055 982 710 463 471 384 404 155 90 43 2 0 2 5 4 4 2 0 0 20 8 11 8 0 0 0 0
19 51 25 3 0 0 0 0 0 0 0 0 257 578 852 832 1201 1274 1087 971 982 1011 1034 750 830 553 643 512 466 297 133 199 10 0 0 3 6 5 3 22 93 44 50 21 9 0 0 0 0
1 29 6 8 0 0 0 0 0 0 0 0 609 366 959 904 1109 1092 758 936 905 904 758 891 761 710 609 560 434 422 263 330 46 0 0 3 6 6 3 1 29 43 2 2 23 0 0 0 0
20 9 21 13 0 0 0 0 0 0 0 9 619 231 774 782 983 891 1025 764 823 779 840 892 762 649 519 537 458 419 381 344 148 0 0 0 0 2 2 0 1 2 0 0 0 0 0 0 0
21 44 1 7 3 0 0 0 0 0 6 190 480 601 1164 912 918 984 990 876 761 858 967 899 736 499 482 490 416 313 85 192 153 0 0 0 0 0 0 0 0 0 0 0 0 0 0 0 0
15 13 0 0 4 0 0 0 0 2 130 359 709 1276 1310 1129 1039 1139 1049 842 917 793 915 893 635 529 622 556 288 84 3 6 93 9 0 0 0 0 0 0 0 0 0 0 0 0 0 0 0
5 0 0 3 0 0 0 0 8 77 84 275 448 1042 1329 1322 1252 1266 1059 896 1042 1073 1021 943 661 693 637 348 189 7 0 0 0 6 0 0 0 0 0 0 0 0 0 0 0 0 0 0 0
14 12 0 9 36 36 2 0 3 9 1 311 862 1199 1386 1167 1437 1465 1301 1090 1130 1130 1078 1022 839 792 507 273 145 15 0 0 0 0 0 1 0 0 0 0 0 0 0 0 0 0 0 0 0
17 0 7 20 9 7 0 3 0 0 0 15 694 1031 994 1123 1273 1364 1403 1185 1133 1081 996 1032 1001 805 455 280 184 90 6 3 0 0 0 0 30 36 3 0 0 0 0 0 0 0 0 0 0
17 18 15 3 22 20 1 2 0 0 0 21 296 449 813 991 1010 1119 1132 1271 1186 1107 1008 1066 1062 843 508 402 284 188 110 106 32 0 0 0 5 73 48 19 15 10 3 6 4 8 15 0 0
0 21 33 12 14 12 0 0 0 0 0 0 0 65 598 847 836 1023 1161 1390 1249 1109 1106 1087 1084 920 642 512 392 245 235 210 128 0 0 0 0 10 63 38 27 28 25 27 27 12 0 0 0
3 9 8 23 37 25 4 1 0 0 0 0 0 0 10 699 779 759 983 1154 1027 989 989 1131 1122 1030 845 597 428 258 300 171 95 0 0 0 0 0 10 65 60 49 40 41 38 10 0 0 0
10 5 8 10 36 2 0 2 0 0 0 0 0 0 0 128 599 594 819 989 1010 1028 979 1114 1161 1134 1004 755 543 378 425 211 22 0 0 0 0 0 0 0 34 76 48 34 5 0 0 0 0
0 0 2 9 3 43 2 0 14 0 0 0 0 0 0 0 214 592 776 802 931 961 1072 1148 1291 1232 1030 815 668 478 490 299 61 51 30 0 0 0 1 9 18 4 0 0 0 0 0 0 0
0 3 0 13 3 21 1 0 25 0 0 0 0 0 0 0 51 153 477 889 889 878 980 1006 1179 968 1080 945 649 658 607 496 300 149 149 127 71 8 6 4 14 0 0 0 0 0 1 0 0
1 0 2 0 0 9 15 25 17 43 1 0 0 0 0 0 0 1 95 378 864 1077 987 960 1029 1059 1107 1106 839 739 637 584 535 410 389 193 156 100 73 60 34 14 1 0 0 1 5 7 1
0 0 0 0 0 0 7 9 4 0 8 8 0 0 0 0 0 3 77 270 668 892 1156 1186 1018 1140 1174 1052 756 633 694 596 596 524 513 435 293 216 125 89 65 56 22 15 6 12 20 40 7
0 0 0 0 0 1 1 0 0 0 0 0 0 2 0 0 0 0 0 249 672 811 1026 1092 1098 1101 1176 1078 1064 831 881 828 674 687 533 429 419 374 282 197 148 152 132 62 23 39 65 33 51
0 2 0 0 0 1 5 0 0 0 0 0 0 0 0 0 0 0 0 89 526 652 784 1044 1105 1065 1033 1051 992 822 813 595 526 578 509 342 211 187 106 143 145 174 145 109 106 90 59 35 28
3 4 13 0 0 0 0 0 0 0 0 0 0 0 0 0 0 0 0 16 399 571 800 911 935 1060 1088 1027 712 725 603 360 398 247 224 154 77 64 34 66 19 25 26 35 18 20 14 15 2
0 2 6 7 6 0 0 0 0 0 0 0 0 0 0 0 0 0 0 0 125 382 585 702 819 976 806 803 656 565 384 238 196 93 40 53 125 46 132 47 1 0 11 3 0 0 0 0 1
0 0 0 0 0 0 0 0 0 0 0 0 0 0 0 0 0 0 0 0 166 252 151 358 637 720 650 628 510 268 213 149 58 15 1 0 0 0 0 0 0 0 0 0 0 3 0 0 0
0 0 1 0 0 0 0 0 0 0 0 0 0 0 0 0 0 0 0 0 3 60 103 236 344 477 434 441 265 113 28 0 0 0 0 0 0 0 0 0 0 0 0 0 0 0 0 17 30
0 0 0 0 0 0 0 0 0 0 0 0 0 0 0 0 0 0 0 0 0 0 0 0 50 295 215 110 26 1 0 0 0 0 0 0 0 0 0 0 0 0 0 0 0 0 0 0 0
0 0 0 0 0 0 0 0 0 0 0 0 0 0 0 0 0 0 0 0 0 0 0 0 0 2 22 4 0 0 0 0 0 0 0 0 0 0 0 0 0 0 0 0 0 0 0 0 0
0 0 0 0 0 0 0 0 0 0 0 0 0 0 0 0 0 0 0 0 0 0 0 0 0 0 0 0 0 0 0 0 0 0 0 0 0 0 0 0 0 0 0 0 0 0 0 0 0
CIN
0 -96 -88 -29 -5 0 0 0 0 0 0 0 0 -37 -30 -74 -14 -40 -189 -146 -104 -41 -2 0 0 -7 -32 -84 -205 -299 0 -1 -159 -23 -8 -5 -21 -96 -178 0 0 0 -1 0 0 0 0 -1 0
-72 -10 -39 -25 0 0 0 0 0 0 0 0 -60 -72 -55 -67 -202 -186 -110 -110 -91 -45 -1 0 -1 -6 -65 -115 -199 -338 -325 -1 0 -145 -100 -104 -169 0 0 0 0 0 0 0 0 0 -1 -3 -11
-7 -112 -17 -12 0 0 0 0 0 0 0 0 -41 -86 -122 -104 -165 -188 -124 -96 -65 -39 -8 -8 -2 -18 -44 -127 -151 -229 -366 -303 -1 0 0 0 0 0 0 0 0 0 0 0 0 0 -4 -17 -5
-4 -20 -52 -3 0 0 0 0 0 0 0 0 -59 -65 -157 -207 -179 -193 -105 -76 -56 -35 -21 -5 -11 -24 -43 -101 -76 -172 -208 0 0 0 0 0 0 0 0 0 0 -1 0 0 0 -12 -7 -8 0
-9 -9 -93 0 0 0 0 0 0 0 0 0 -72 -87 -120 -153 -165 -149 -99 -93 -106 -39 -6 -3 -14 -53 -22 -36 -31 -147 -180 -205 0 0 0 0 0 0 0 0 0 -201 -53 -30 -5 0 0 0 0
-3 -3 -11 0 0 0 0 0 0 0 0 0 -73 -103 -91 -210 -133 -67 -51 -74 -93 -40 -14 -22 -4 -24 -6 -16 -16 -57 -113 -44 -103 0 0 0 0 0 0 -271 -152 -206 -195 -66 -12 0 0 0 0
-1 0 0 0 0 0 0 0 0 0 0 0 -107 -82 -73 -124 -173 -103 -90 -95 -73 -36 -52 -30 -16 -11 -17 -18 -15 -17 -35 -20 -137 0 0 0 0 0 0 -89 -246 -226 0 0 -82 -3 0 0 0
-3 -1 -1 0 0 0 0 0 0 0 0 -166 -119 -83 -65 -137 -111 -131 -26 -75 -63 -50 -22 -27 -32 -34 -44 -36 -22 -19 -18 -24 -54 0 0 0 0 -1 -1 0 0 0 0 0 0 0 0 0 0
-4 0 0 -2 0 0 0 0 0 0 -51 -77 -105 -125 -123 -182 -105 -93 -10 -23 -69 -11 -8 -17 -50 -60 -60 -52 -56 -59 -126 -56 -62 0 0 0 0 0 0 0 0 0 0 0 0 0 0 0 0
-7 0 0 0 -6 0 -21 -5 0 -32 -13 -51 -61 -77 -88 -80 -108 -66 -42 -68 -30 -6 -16 -22 -57 -67 -46 -51 -94 -167 -102 -85 -102 -239 0 0 0 0 0 0 0 0 0 0 0 0 0 0 0
0 0 0 -16 0 0 0 0 -59 -16 -27 -47 -60 -36 -54 -47 -39 -21 -53 -89 -16 -1 -13 -18 -59 -50 -60 -112 -165 -140 0 0 0 -241 -18 0 0 0 0 0 0 0 0 0 0 0 0 0 0
-1 -2 0 -3 -1 -8 -14 0 -21 -6 -48 -188 -73 -50 -63 -62 -42 -17 -19 -56 -2 -27 -44 -6 -35 -49 -99 -146 -198 -129 0 0 0 0 0 -26 0 0 0 0 0 0 0 0 0 0 0 0 0
-3 0 -12 -3 -2 -9 0 -17 -1 0 0 -135 -39 -37 -44 -46 -54 -43 -9 -23 -24 -8 -38 -30 -32 -65 -131 -165 -194 -247 -140 -105 0 0 0 0 -221 -252 -105 0 0 0 0 0 0 0 0 0 0
-3 -5 -17 -6 -1 -3 0 -11 -16 -8 0 -163 -40 -25 -33 -33 -41 -60 -43 -18 -31 -25 -43 -41 -44 -63 -123 -149 -171 -211 -239 -214 -216 0 0 0 -39 -224 -231 -279 -293 -287 -187 -264 -191 -205 -177 0 0
-2 -6 -26 -21 -9 -3 0 -1 -2 0 0 0 -1 -51 -24 -28 -44 -38 -41 -19 -39 -42 -39 -61 -51 -70 -100 -132 -149 -204 -189 -189 -212 0 0 0 0 -218 -242 -259 -280 -270 -264 -240 -227 -231 0 0 0
-1 -15 -6 -13 -8 -10 -1 0 0 0 0 0 0 0 -42 -31 -27 -61 -64 -46 -58 -55 -39 -50 -54 -70 -82 -137 -165 -195 -181 -228 -244 0 0 0 0 0 -260 -255 -251 -243 -254 -231 -215 -212 0 0 0
-7 -7 -9 -19 -4 -35 -1 0 0 0 0 0 0 0 0 -49 -35 -58 -60 -49 -40 -36 -50 -37 -45 -50 -65 -102 -144 -147 -173 -228 -357 0 0 0 0 0 0 0 -276 -224 -244 -253 -150 0 0 0 0
0 -10 -24 -27 -2 -6 -5 0 -1 0 0 0 0 0 0 0 -53 -44 -44 -48 -31 -35 -39 -49 -45 -52 -68 -83 -113 -137 -159 -193 -270 -268 -284 0 0 0 -351 -331 -292 -326 0 0 0 0 0 0 0
0 -20 0 -12 -35 -2 -11 0 -1 0 0 0 0 0 0 0 -60 -84 -83 -50 -42 -40 -37 -31 -36 -61 -66 -67 -82 -99 -89 -111 -153 -174 -159 -150 -162 -245 -257 -259 -236 0 0 0 0 0 -230 0 0
0 0 -46 0 0 -10 -9 -4 -23 -15 -3 -1 0 0 0 0 0 -40 -85 -80 -53 -35 -32 -39 -37 -41 -54 -82 -70 -81 -77 -75 -49 -69 -86 -129 -122 -136 -129 -131 -124 -168 -42 0 0 -46 -163 -158 -59
0 0 0 0 0 0 -7 -5 -12 -39 -2 -8 0 0 0 0 0 -63 -100 -87 -80 -65 -48 -35 -45 -32 -57 -70 -98 -90 -55 -77 -60 -81 -74 -86 -75 -78 -101 -100 -77 -64 -116 -125 -98 -130 -117 -72 -67
0 0 0 0 0 -4 0 0 0 0 0 0 -3 -3 0 0 0 0 0 -77 -64 -68 -75 -63 -72 -59 -59 -78 -52 -64 -69 -53 -49 -48 -48 -49 -51 -47 -40 -36 -34 -32 -25 -46 -79 -51 -75 -79 -47
0 0 0 0 0 -12 -4 0 0 0 0 0 0 0 0 0 0 0 0 -82 -73 -80 -74 -77 -61 -65 -74 -67 -59 -62 -61 -71 -84 -55 -43 -58 -68 -66 -63 -71 -46 -15 -25 -21 -16 -24 -34 -44 -46
0 -1 0 -1 0 0 0 0 0 0 0 0 0 0 0 0 0 0 0 -162 -91 -108 -85 -75 -64 -62 -58 -51 -57 -47 -56 -105 -108 -132 -116 -145 -164 -137 -160 -117 -150 -137 -37 -23 -19 -18 -16 -11 -17
0 -4 -4 -2 -2 0 0 0 0 0 0 0 0 0 0 0 0 0 0 0 -128 -109 -116 -88 -84 -60 -72 -59 -59 -70 -84 -120 -152 -177 -167 -158 -126 -169 -103 -133 -100 -25 -164 -177 0 0 0 -5 -33
0 0 0 -2 0 0 0 0 0 0 0 0 0 0 0 0 0 0 0 0 -135 -114 -116 -85 -66 -66 -89 -70 -75 -123 -126 -141 -164 -187 -21 0 0 0 -22 0 0 0 0 0 0 -102 0 0 0
0 0 0 0 0 0 0 0 0 0 0 0 0 0 0 0 0 0 0 0 -141 -154 -145 -101 -92 -113 -109 -96 -125 -168 -237 0 0 0 0 0 0 0 0 0 0 0 0 0 0 0 0 -106 -117
0 0 0 0 0 0 0 0 0 0 0 0 0 0 0 0 0 0 0 0 0 0 0 0 -242 -135 -142 -183 -256 -74 0 0 0 0 0 0 0 0 0 0 0 0 0 0 0 0 0 0 0
0 0 0 0 0 0 0 0 0 0 0 0 0 0 0 0 0 0 0 0 0 0 0 0 0 -136 -310 -108 0 0 0 0 0 0 0 0 0 0 0 0 0 0 0 0 0 0 0 0 0
0 0 0 0 0 0 0 0 0 0 0 0 0 0 0 0 0 0 0 0 0 0 0 0 0 0 0 0 0 0 0 0 0 0 0 0 0 0 0 0 0 0 0 0 0 0 0 0 0
Wind_Speed
29 26 24 25 34 38 49 45 34 32 31 27 23 22 19 18 20 20 8 8 12 12 12 12 12 12 12 12 12 12 13 13 13 15 17 17 17 17 17 17 18 20 21 22 23 23 24 24 23
27 26 26 31 43 51 52 44 40 35 26 18 18 16 18 20 16 8 9 10 13 12 11 11 12 12 13 13 13 13 13 13 13 13 15 16 17 16 17 17 19 20 21 22 23 23 23 22 21
27 27 33 38 46 57 55 44 46 35 27 25 22 18 18 16 11 8 9 13 13 12 10 12 13 12 12 13 13 13 14 14 13 13 14 15 16 16 17 19 20 21 21 22 22 22 21 19 18
30 33 35 47 53 56 49 41 36 35 32 26 22 20 15 15 17 9 13 14 14 12 10 12 12 12 12 13 14 14 14 15 15 15 14 15 16 17 18 19 20 21 21 21 21 21 19 18 17
31 37 46 48 56 53 49 37 28 32 32 26 25 26 19 18 13 14 15 16 15 13 11 11 12 13 12 12 13 15 15 16 16 16 16 16 17 18 19 20 21 21 21 21 21 20 18 17 19
37 41 45 53 58 57 47 44 33 33 33 28 25 24 22 19 11 13 15 15 16 15 12 10 11 11 12 13 14 15 16 16 16 16 16 16 17 17 18 18 19 20 20 20 20 18 17 16 17
43 47 48 43 59 57 51 38 33 34 33 29 23 26 23 20 13 14 14 14 15 14 12 10 8 10 11 11 13 13 14 15 15 15 15 15 15 16 17 17 18 19 19 19 18 17 16 16 16
40 49 54 40 49 58 47 34 39 45 29 24 26 30 29 25 19 12 11 14 15 14 13 10 9 8 9 10 13 13 13 13 14 14 15 15 14 14 15 16 16 17 18 18 17 16 15 15 16
36 48 67 55 48 47 40 40 34 32 33 28 28 28 25 20 18 18 14 13 14 17 13 11 9 8 8 9 11 12 13 12 14 13 14 14 13 13 14 15 16 16 16 16 15 14 14 13 14
40 52 57 39 38 38 33 39 38 31 32 31 26 21 21 23 23 20 20 16 20 17 15 12 10 9 8 7 8 7 9 10 11 10 10 10 12 13 13 14 14 15 15 14 14 13 12 12 13
38 54 47 44 49 31 32 35 34 32 36 35 28 24 24 24 23 23 21 19 19 16 15 13 11 10 8 7 7 6 7 9 10 11 10 9 8 8 10 11 11 11 12 12 11 11 11 12 13
42 43 50 34 35 38 31 29 33 29 27 28 23 23 25 25 25 23 23 20 17 16 16 14 12 11 9 8 7 8 8 7 7 9 10 9 9 7 7 7 8 8 9 10 10 10 11 12 13
42 44 42 42 31 28 29 31 34 38 24 24 25 23 26 29 26 23 22 20 18 17 16 15 13 12 10 8 7 6 6 6 6 8 9 8 7 6 6 6 6 6 8 9 9 10 11 12 13
33 38 47 41 34 32 30 33 29 31 25 23 26 24 25 26 29 26 24 21 21 18 17 16 14 13 11 8 8 6 6 6 6 7 8 7 6 5 5 4 4 6 7 8 9 10 11 12 12
34 38 44 43 38 30 27 40 39 28 26 23 25 27 27 26 25 29 23 22 20 17 17 17 15 13 11 10 8 6 7 6 5 6 8 8 6 5 3 2 3 4 5 7 9 10 12 11 11
36 35 47 37 35 31 32 36 37 29 28 26 26 24 28 30 25 25 27 24 21 21 18 16 15 14 12 10 8 7 6 4 7 6 4 5 5 3 0 4 4 4 5 7 10 12 11 12 13
31 45 46 44 39 34 37 28 33 35 31 32 29 27 28 30 29 25 27 25 24 20 18 17 15 14 13 12 9 8 7 6 6 4 3 3 4 5 6 7 8 8 9 9 10 11 14 15 15
41 39 43 45 43 35 38 37 28 28 36 30 31 30 30 33 29 26 25 25 24 22 19 17 17 17 16 15 15 12 11 8 8 7 6 7 8 8 9 11 11 11 12 12 14 16 17 18 16
33 37 40 35 34 37 38 39 33 28 33 34 33 32 32 34 27 24 24 24 23 23 21 19 16 14 14 16 20 15 14 12 16 15 10 9 9 10 12 14 15 15 15 15 15 17 18 18 16
28 39 35 32 31 35 37 33 28 27 32 38 36 33 33 35 31 26 24 23 23 23 21 20 18 16 15 14 18 17 13 16 15 13 15 15 14 11 11 13 13 13 14 14 13 13 18 19 15
26 40 36 34 29 28 32 30 34 30 35 29 31 37 38 33 32 28 26 25 22 21 20 19 18 17 17 17 15 15 18 19 18 17 17 14 14 15 16 16 16 13 11 12 15 14 16 15 19
24 29 32 36 33 37 32 39 36 35 39 36 32 41 41 38 32 33 29 27 25 22 19 19 17 18 18 17 15 15 12 17 20 19 17 16 14 15 17 18 19 19 20 22 17 14 14 16 18
19 22 30 34 33 28 29 35 39 44 42 40 43 42 37 31 25 23 31 29 27 25 22 22 21 19 18 17 17 16 15 16 16 15 15 17 18 18 19 19 20 21 20 19 19 18 19 21 25
16 19 17 23 28 38 37 37 39 39 49 47 40 37 38 27 24 24 28 28 27 25 24 23 23 21 19 17 17 16 15 14 13 14 15 16 17 16 16 15 16 20 23 21 22 17 17 16 19
16 19 24 30 34 38 31 33 35 33 39 44 41 38 36 34 28 25 28 30 27 24 25 23 22 22 21 18 17 14 12 11 13 13 13 13 14 17 17 19 22 21 19 24 18 22 19 20 20
17 19 20 28 31 28 25 33 28 26 26 30 31 33 30 33 29 26 25 27 25 24 24 24 23 22 21 17 14 11 10 11 11 12 13 16 18 22 23 25 27 25 23 24 24 28 28 26 29
20 19 15 15 17 22 27 26 24 20 23 26 27 31 32 32 30 30 22 23 23 23 22 22 20 19 18 15 12 11 11 12 13 15 16 18 20 22 22 23 23 22 22 21 23 25 24 25 26
16 15 20 13 19 24 26 25 23 19 16 15 19 27 31 33 34 31 26 18 23 27 25 22 19 17 16 15 13 12 11 11 12 13 15 17 19 21 21 23 25 25 25 26 27 26 28 28 28
16 18 17 17 16 21 24 25 18 22 16 13 15 15 18 21 26 25 21 21 22 25 24 21 19 18 16 15 14 13 14 13 14 15 15 15 18 21 23 27 26 26 27 27 27 26 29 29 27
18 16 16 16 17 17 19 21 16 14 12 14 16 16 17 17 19 21 21 21 23 22 20 19 19 18 16 14 15 14 14 14 15 15 15 16 19 20 21 21 22 23 25 27 28 28 28 29 30
Wind_Direction
259 261 258 247 237 239 235 235 238 237 237 248 251 248 241 248 238 245 234 188 149 144 133 125 116 105 95 83 74 69 67 68 72 69 72 73 74 73 69 65 62 64 67 68 68 68 68 65 56
259 255 249 242 236 231 232 233 233 234 239 247 239 240 245 244 243 238 200 157 156 152 143 131 118 107 97 87 79 75 72 71 74 75 75 76 75 71 68 65 67 68 69 69 70 71 68 60 49
255 247 240 237 235 230 230 231 230 234 242 238 242 246 242 236 231 193 194 158 158 150 150 132 120 109 98 91 85 78 76 73 72 76 78 78 75 72 71 72 72 72 72 71 72 70 63 50 37
247 240 243 237 233 232 233 232 233 235 239 241 230 232 248 242 230 206 163 163 164 165 153 133 122 111 101 94 89 85 81 79 77 76 77 79 78 76 76 76 76 75 74 73 73 69 58 45 36
243 235 235 236 233 232 232 233 233 233 235 236 231 233 231 237 233 176 167 156 159 165 157 142 125 113 105 97 93 90 88 85 82 80 81 80 81 81 79 78 79 78 76 76 74 70 56 45 43
238 233 237 232 230 230 233 231 236 236 234 235 234 226 230 233 181 187 188 171 172 162 158 148 130 116 109 101 97 96 93 90 83 81 83 83 83 81 80 78 75 76 74 75 74 68 57 46 42
236 232 234 236 228 228 229 232 233 230 233 236 226 225 227 220 196 186 190 172 163 170 170 160 145 121 112 105 100 97 97 94 87 83 83 84 82 82 80 77 75 76 75 74 72 66 55 48 41
239 234 231 241 230 229 229 232 229 231 237 235 230 231 221 218 198 184 179 161 170 184 188 171 151 133 117 108 105 100 95 97 92 87 86 87 83 80 77 76 74 74 74 74 68 61 52 45 46
240 233 226 230 227 227 230 229 224 232 236 236 234 232 220 205 192 196 197 188 176 196 186 174 156 144 125 114 108 103 100 94 99 92 90 87 83 82 80 79 77 74 72 70 65 55 45 35 31
232 228 224 236 231 231 234 227 222 228 227 229 229 221 208 205 197 192 200 187 202 171 172 171 161 149 133 121 111 103 98 99 101 96 91 86 86 86 84 82 79 76 72 64 59 49 35 22 17
236 227 229 232 226 242 237 227 228 228 226 228 220 208 209 205 202 202 206 189 170 173 174 176 164 150 142 135 120 110 102 103 103 107 100 92 86 77 78 76 71 67 65 58 47 39 32 23 15
235 230 225 240 234 234 230 231 215 224 231 234 215 208 217 211 206 204 209 198 185 184 183 176 169 159 152 141 130 118 117 107 105 109 111 106 96 80 72 67 61 54 47 40 33 28 17 7 1
232 228 227 228 243 232 231 223 220 221 244 233 225 214 215 216 213 210 211 208 202 198 195 185 177 173 162 154 149 135 132 118 111 115 117 110 105 90 85 62 47 33 20 15 16 11 9 5 357
234 231 226 228 230 232 229 220 218 218 232 228 225 221 222 222 218 218 215 206 208 207 202 192 184 178 171 170 163 150 146 136 121 123 125 124 117 104 103 68 35 19 16 12 8 7 2 359 5
232 226 224 227 226 232 227 225 218 226 223 226 227 231 228 227 224 220 218 210 207 204 200 195 192 186 182 177 175 170 160 151 147 133 134 135 131 122 114 79 41 35 22 5 358 355 352 358 358
223 227 218 224 221 222 223 223 218 226 221 227 231 231 234 233 229 228 221 219 217 217 204 199 205 198 199 195 194 187 197 183 160 151 146 145 144 140 274 311 320 336 342 342 339 339 346 345 343
222 217 216 217 217 222 220 226 228 228 222 232 233 234 238 236 235 233 226 221 221 214 210 212 204 202 200 213 202 209 209 229 202 193 232 263 286 292 295 295 302 309 313 318 324 327 328 326 328
217 217 218 216 216 220 221 225 238 216 216 221 229 235 237 237 235 236 234 230 225 223 220 218 222 222 224 234 242 250 246 250 245 247 260 274 282 289 295 301 302 301 305 308 310 312 314 316 320
230 219 218 223 225 222 221 224 237 226 226 231 232 234 236 236 233 232 232 229 229 230 227 226 221 225 221 234 244 251 252 259 270 267 267 277 278 283 289 292 294 296 299 302 305 308 307 308 316
228 214 216 225 225 225 223 228 230 227 230 234 236 237 241 237 235 230 229 230 231 233 233 233 231 232 236 238 249 259 255 268 270 273 280 277 281 281 286 293 295 294 298 303 304 308 304 304 307
228 215 216 216 222 229 219 227 226 228 225 231 231 231 240 237 233 231 230 231 235 236 236 234 237 237 244 249 256 266 264 271 272 274 279 280 280 285 289 294 296 294 291 299 303 308 306 306 306
222 218 216 218 220 220 228 222 226 228 226 229 238 221 225 226 234 232 233 235 236 239 240 242 240 242 249 252 252 261 255 266 270 275 280 284 285 290 293 292 291 293 296 299 295 307 306 304 302
227 220 220 219 222 225 228 227 227 226 230 233 231 227 234 234 240 241 238 237 239 243 243 245 247 249 254 255 261 264 272 277 281 273 274 284 290 297 296 299 302 297 302 301 299 306 303 303 303
234 216 212 222 227 230 233 233 234 232 228 233 234 236 233 242 246 249 243 239 240 244 246 248 251 255 257 258 265 268 272 279 283 286 281 284 291 296 297 301 310 317 306 309 307 308 310 308 311
226 205 212 218 224 228 230 232 237 245 244 238 238 238 241 242 246 250 243 240 242 243 248 250 252 256 262 264 265 266 268 273 282 287 289 291 294 297 298 299 301 300 297 294 314 306 312 309 311
228 220 223 221 217 226 224 230 242 253 250 244 246 243 244 244 247 249 248 242 243 245 250 253 254 258 263 264 265 267 268 277 284 286 289 291 292 295 297 298 299 303 302 301 298 297 299 299 302
229 223 242 226 229 227 227 241 253 262 252 248 242 241 245 248 247 246 252 247 243 246 251 254 256 261 262 261 260 264 275 280 284 290 292 293 299 301 301 302 304 307 308 306 305 304 307 307 307
232 231 221 239 224 225 232 238 243 245 252 257 251 249 255 254 249 251 250 243 246 248 252 257 261 263 264 263 265 269 274 282 287 293 295 300 302 303 303 303 303 303 304 304 303 304 305 305 306
231 234 239 248 247 238 233 243 271 259 272 274 274 273 269 262 255 254 251 248 247 249 251 255 260 264 266 268 273 274 280 286 289 292 294 297 303 304 302 302 300 302 303 303 305 307 304 304 308
212 241 245 252 254 259 256 252 282 287 283 285 281 279 275 270 262 257 247 246 245 247 251 256 261 265 268 272 276 282 287 292 296 298 301 304 307 314 312 312 307 306 304 306 305 305 305 305 305